Погода в Коркодоне

Погода в Коркодоне : погода сейчас, прогноз погоды и архив. Всё, что Вы хотите узнать о погоде в Коркодоне!

Поиск расширенной информации на нашем сайте:

Другие новости

Новости СМИ2

Главная страница сайта

Новости сайта

03.07.2017

Напоминаем, что на нашем специализированном сайте Метеоцентр.Азия вы можете получить высокодетализированные автоматические прогнозы погоды по пунктам России, СНГ и мира в авиационном формате (включающие направление и скорость ветра, видимость, явления погоды, количество и форму облачности, нижнюю и верхнюю границу облачности).


Погода в Коркодоне - сегодня

Время (UTC), дата Ветер
(°,м/с) 
Видим.   Явления Облачность Т
(°С)
Тd
(°С)
f(%) Тe
(°С)
Pmin
(гПа)
dP
(гПа)
Po
(мм)
O2
(г/м3)
Тmin Tmax R s Состояние
почвы
00 22.11.17 100 (В) 20000 м    ясно 
-34.3 -36.5 80 -38  1000  739  343  -35.2         
03 22.11.17 100 (В) 20000 м    5/3 1000 м средняя 
[Sc|Ac trans]
-31.6 -33.3 85 -35  1000.7  0.9  740  339           
06 22.11.17 110 (В) 20000 м    6/3 1000 м средняя 
[Sc|Ac trans]
-35.3 -37.7 78 -36  1002.6  1.7  741  345           
09 22.11.17 тихо ()   20000 м    ясно 
-35 -37.4 79 -35  1004.5  1.8  743  345    -31.6       
12 22.11.17 тихо ()   20000 м  ледяные иглы{снег}  ясно 
-39.1 -41.2 80 -39  1007.3  2.6  745  352           
15 22.11.17 300 (СЗ) 20000 м  ледяные иглы{снег}  8/0 средняя, верхняя 
[Ac trans|Ci fib]
-37.6 -39.9 79 -42  1009.5  2.2  746  351           
18 22.11.17 280 (З) 20000 м  ледяные иглы{снег}  4/0 средняя 
[Ac trans]
-37 -39.1 81 -38  1012.3  2.8  748  351           
21 22.11.17 310 (СЗ) 20000 м  ледяные иглы{снег}  5/3 1000 м средняя 
[Sc|Ac trans]
-38.1 -40.3 80 -39  1014.9  2.5  750  353  -39.6      50  равномерный
сухой снег
100% 
00 23.11.17 тихо ()   20000 м  {снег}  4/4 1000 м 
[Sc]
-37.2 -39.5 79 -37  1017.2  2.4  752  353           
03 23.11.17 тихо ()   20000 м    3/0 верхняя 
[Ci fib]
-35.4 -37.7 79 -35  1018.6  1.5  753  351           
06 23.11.17 тихо ()   20000 м    3/0 верхняя 
[Ci fib]
-40.6 -42.7 80 -41  1020.9  1.9  755  359           
09 23.11.17 тихо ()   20000 м  ледяные иглы{снег}  6/0 верхняя 
[Ci fib]
-42.5 -44.4 82 -43  1022.6  1.5  756  363    -35.2       
12 23.11.17 тихо ()   20000 м  ледяные иглы{снег}  3/0 верхняя 
[Ci fib]
-43.6 -45.7 80 -44  1023.5  0.9  756  365           
15 23.11.17 тихо ()   20000 м  ледяные иглы{снег}  ясно 
-44 -46.4 77 -44  1023.8  0.2  757  366           
18 23.11.17 тихо ()   20000 м  ледяные иглы{снег}  ясно 
-44.4 -46.4 80 -44  1023.9  0.1  757  366           
21 23.11.17 тихо ()   20000 м  ледяные иглы{снег}  ясно 
-45.1 -47.2 79 -45  1023.9  757  367  -45.1      50  равномерный
сухой снег
100% 
00 24.11.17 310 (СЗ) 20000 м  ледяные иглы{снег}  4/3 1000 м верхняя 
[Sc|Ci fib]
-42 -44.4 78 -43  1023.8  757  362           
03 24.11.17 280 (З) 20000 м  {снег}  8/0 средняя, верхняя 
[Ac trans|Ci fib]
-39.8 -42.2 78 -44  1021  -2.5  755  358           
06 24.11.17 280 (З) 20000 м  слаб. снег  10/0 средняя, верхняя 
[Ac trans|Cs]
-35.9 -38.1 80 -42  1018.3  -2.4  753  351           
09 24.11.17 280 (З) 10 км  слаб. снег  10/4 1000 м средняя 
[Sc|As op]
-33.6 -35.9 80 -40  1014  -4.2  750  347    -33.6  0.3     
12 24.11.17 270 (З) 4000 м  слаб. ливневой снег  10/10 1000 м кучево-дожд. 
[Cb cap]
-31.8 -34.1 80 -40  1008  -5.7  746  342           
15 24.11.17 280 (З) 1000 м  ливневой снег  10/10 600 м кучево-дожд. 
[Cb cap]
-28.4 -30.8 80 -35  1001.8  -6  741  335           
18 24.11.17 270 (З) 1000 м  ливневой снег  10/10 600 м кучево-дожд. 
[Cb cap]
-26.2 -28.7 79 -33  999.1  -2.6  739  331           
21 24.11.17 280 (З) 1000 м  ливневой снег  10/10 600 м кучево-дожд. 
[Cb cap]
-27.2 -29.6 80 -34  999.4  0.3  739  333  -33.6    52  равномерный
сухой снег
100% 
00 25.11.17 260 (З) 4000 м  слаб. ливневой снег  10/10 600 м кучево-дожд. 
[Cb cap]
-26.2 -28.7 79 -33  997.1  -2.3  738  331           
Время (UTC), дата Ветер
(°,м/с) 
Видим.   Явления Облачность Т
(°С)
Тd
(°С)
f(%) Тe
(°С)
Pmin
(гПа)
dP
(гПа)
Po
(мм)
O2
(г/м3)
Тmin Tmax R s Состояние
почвы

Для получения пояснительной информации подведите курсор к названию столбца.

ПОГОДА в Коркодоне - архив

Всё, что Вы хотите узнать о погоде в Коркодоне - удобно и подробно!

Выберите нужную дату (начиная с 1 января 2015* года) и нажмите кнопку "Найти".
Будут отображены архивные сводки погоды по пункту Коркодон, начиная с указанной даты.


Отображать данные в формате CSV (для использования в таблицах Excel)


Внимание! Наш архив погоды предназначен исключительно для личного некоммерческого использования в познавательных целях. Если Вам необходимы официальные справки о состоянии погоды (для производственных, юридических, коммерческих и т.п. целей), обращайтесь в органы Росгидромета.

*Примечание: данная дата относится к архиву по метеостанциям СССР (Россия, СНГ, Балтия).
Архив по метеостанциям Зарубежной Европы и Азии (кроме Китая) хранится 10 дней, по другим регионам земного шара (Китай, Африка, Америка, Австралия, Океания) - 1 день.

Коркодон - район местоположения метеостанции


Название, широта, долгота, высота метеостанции:
Коркодон 64.7°ш. 154.1°д. 101 м над ур. моря [Российская Федерация]

Дополнительная информация

В oтличие oт бoльшинства пoгoдных сайтoв мы публикуем пoдрoбную метеoинфoрмацию в детальнoм прoфессиoнальнoм фoрмате.

Характеристики температуры и влажнoсти вoздуха измеряются на высoте 2 м в тени вдали oт зданий и деревьев.
Скoрoсть ветра измеряется на высoте 10 м (на урoвне рoста челoвека скoрoсть ветра ниже в 1.5-2 раза). Если метеoстанция нахoдится в гoрoде или в лесу, тo скoрoсть ветра занижена на 2-4 м/с пo сравнению с oткрытым местoм. Скoрoсть ветра над акватoриями крупных рек и oзёр, а также на вершинах хoлмoв на 2-5 м/с выше, чем в oбычных услoвиях.
Атмoсфернoе давление в разных тoчках местнoсти мoжет значительнo oтличаться oт давления на метеoстанции, в зависимoсти oт услoвий рельефа (при пoдъёме на 10 м давление пoнижается примернo на 1 мм рт.ст.).